Showing default

VSP RF C1, 59136

Orbit data source: Space-Track

VSP RF C1, 59136 is a payload satellite owned by Aerospacelab (BE) in SSO that was launched on Mon, 04 Mar 2024 UTC via an FALCON 9 launch vehicle from the Air Force Western Test Range (AFWTR). Payload-class satellites include a variety of spacecraft equipped with specific instruments for various scientific and technological missions. These include communications satellites like Starlink; space stations such as the ISS; scientific satellites like the Hubble; Earth observation satellites from companies like Planet Labs, Umbra, and HawkEye 360; GPS; miniature CubeSats for education and research; and military/defense satellites.

Loading next visibility...
Identifier
59136, 2024-043AQ
Orbit
SSO
Country
Flag of BEBE / BEL
Related business
Manufacturer
Aerospacelab
Mission
Operational Commercial Sigint
Bus & Motor
AEROSP, Unknown motor
Mass
~200 kg wet, ~200 kg dry
Launch date (UTC)
2024-03-04 (2 years ago)
Launch vehicle
FALCON 9
Launch site
Air Force Western Test Range (AFWTR)
Object type
Payload
Rocket body
Debris
Shape & HBR
Box + 2 Pan, 1.0 m
Radar Cross Section
0.963 m², Medium (>0.1 m² and < 1m²)

Expand to show TLE details & history
Last TLE update: 8 hours ago

TLE from 8 hours ago
0 VSP RF C1
1 59136U 24043AQ  26034.30362073  .00006956  00000-0  24665-3 0  9998
2 59136  97.5392 170.0787 0009871 356.2590   3.8574 15.29366566106616
Epoch: 2026-02-03T07:17Z
TLE epoch observation values (Epoch: 2026-02-03T07:17:12.831Z)
Latitude
-0.00003°
Longitude
-72.71124°
Altitude
474.05 km
Speed
7.633 km/s
True Right ascension
11h 20m 18s
True Declination
0° 00' 00"
Sunlit
Object was in full shadow at epoch
Visualization orbit readout
Latitude
Unknown
Longitude
Unknown
Altitude
Unknown
Speed
Unknown
Apparent Right ascension
Unknown
Apparent Declination
Unknown
Sunlit
N/A
Visualization observer readout
Local Sidereal Time
17:07:52
Azimuth
Unknown
Elevation
Unknown
Doppler factor
Unknown
Orbital elements
Apogee altitude
481.428 km
Perigee altitude
467.899 km
Semi-major axis
6,852.801 km
Eccentricity
0.00099
Inclination
97.5392°
RAAN
170.0787°
Arg. of periapsis
356.259°
True anomaly
3.86502°
Mean anomaly
3.8574°
Eccentric anomaly
3.86121°
Mean motion
3.82597 °/min
Orbital period
94.09 mins
BSTAR
0.00024665
Loading maneuver chart data...
Computing Atmospheric mass density...
Loading historical data...
Loading historical data...
Loading historical data...
Loading historical data...
Loading historical data...
Loading historical data...
Loading historical data...

Documentation

Showing up to 5 results
|